RH
83 97 99 91 70 69 71 69 69 88 90 93 94 98 93 90 92 93 94 96 96 97 98 96 91 86 82 79 93 98 100 98 98 98 98 98 100 99
88 94 91 84 75 71 73 75 79 77 87 86 97 98 97 94 90 90 90 94 98 98 97 92 95 92 86 77 62 61 90 97 100 99 100 100 99 100
100 98 88 76 70 70 75 78 82 87 92 91 92 95 96 95 92 93 93 92 96 99 97 94 94 88 77 62 52 42 70 92 100 100 100 98 100 95
99 93 77 73 76 74 76 80 81 86 87 92 91 94 99 100 100 100 99 96 94 95 96 93 95 86 75 70 82 47 58 90 97 100 95 98 100 93
94 80 71 71 75 79 82 83 86 88 91 91 91 97 100 99 99 99 99 98 95 95 95 91 94 85 69 78 84 77 87 96 96 100 83 98 100 100
87 74 68 69 72 75 81 81 85 91 91 91 93 95 98 99 100 99 100 100 95 92 87 82 78 73 59 88 62 70 98 97 100 100 86 97 100 100
82 74 71 70 73 74 78 87 87 87 90 93 98 100 100 100 99 99 100 99 98 95 85 76 68 64 53 51 64 80 94 97 100 98 93 94 100 100
75 75 76 78 81 86 86 90 86 85 88 92 94 99 92 94 96 97 99 99 96 89 80 74 66 59 51 61 86 96 96 96 98 100 100 87 94 100
72 73 77 79 82 83 84 86 86 85 86 84 91 92 93 89 96 99 98 93 84 75 69 60 60 52 58 78 77 97 98 98 98 97 93 93 84 90
74 73 74 75 77 78 81 80 79 80 85 88 88 88 89 95 97 95 92 90 79 73 60 50 58 56 62 73 87 98 93 97 96 97 89 92 85 76
78 78 79 79 78 79 81 82 81 72 62 58 73 87 93 89 90 96 90 84 74 68 61 47 58 59 63 66 70 81 69 62 68 98 66 63 79 79
83 83 84 84 84 83 84 83 78 70 58 48 44 49 71 85 87 88 85 83 66 65 51 50 65 63 63 64 70 66 69 65 60 71 63 70 65 50
94 89 89 92 90 86 95 85 81 72 59 51 46 50 58 82 84 84 81 84 72 48 50 46 71 66 89 79 66 63 63 62 60 53 50 50 61 61
94 92 89 89 94 91 92 93 80 69 54 62 64 68 68 64 69 66 66 61 60 57 46 50 53 52 58 77 73 60 53 56 62 59 55 50 48 52
96 92 93 94 99 98 93 97 80 74 54 72 73 70 66 65 56 52 53 58 60 59 49 56 44 48 50 51 70 67 58 59 52 47 47 46 46 48
100 100 99 98 100 99 100 100 98 70 60 65 62 55 63 75 66 53 53 52 48 56 58 56 46 41 44 47 53 44 51 47 47 41 40 40 41 41
100 100 100 100 100 100 100 100 100 96 72 62 59 60 58 66 72 66 51 55 49 52 59 53 47 43 38 33 34 36 42 53 54 56 48 41 39 39
100 100 100 100 100 100 100 100 100 100 94 58 64 63 63 66 73 79 64 59 61 67 51 46 49 57 50 38 35 34 47 48 59 63 65 58 44 48
100 100 100 100 100 100 100 100 100 100 98 74 64 65 65 65 76 94 98 82 75 71 78 69 59 58 91 83 67 48 48 44 56 65 64 60 50 58
100 100 100 100 100 99 99 99 99 99 100 95 78 68 70 72 87 90 90 98 92 79 87 91 83 60 52 65 55 59 50 49 54 64 69 65 69 76
100 100 100 99 99 99 99 98 98 99 98 97 87 78 74 74 81 85 81 87 83 82 93 95 69 65 70 69 74 65 62 63 66 73 71 75 91 80
100 100 100 99 99 99 99 99 99 99 97 92 92 87 83 77 82 84 82 81 92 71 73 74 71 87 91 85 83 64 58 63 72 75 74 72 63 87
100 100 100 100 100 100 100 99 99 99 98 98 91 89 88 88 82 76 75 73 72 76 84 82 81 87 89 85 84 79 76 66 82 81 80 79 77 75
Wind_Speed
17 17 20 21 19 17 16 14 9 4 5 9 9 12 10 8 6 6 7 7 6 7 8 7 7 8 9 10 8 9 10 10 11 13 15 16 19 19
22 20 20 21 19 16 16 14 14 13 3 9 8 9 9 7 6 6 8 8 6 7 6 7 7 5 5 7 10 11 11 10 12 14 16 19 22 21
23 23 22 21 20 18 16 16 15 15 8 7 8 9 10 9 9 7 8 10 9 8 7 6 6 5 5 8 10 12 12 11 14 15 17 21 24 20
25 24 24 21 20 19 18 17 16 15 15 10 12 11 11 11 10 9 9 10 10 10 9 7 7 6 7 8 9 11 12 10 12 15 16 21 15 14
24 25 25 23 22 21 20 18 18 16 15 14 10 10 12 11 12 12 11 11 12 11 9 8 8 7 6 7 9 11 11 10 11 14 13 18 19 11
21 25 24 24 24 22 21 19 17 16 16 13 12 12 13 10 13 13 13 13 12 11 11 10 8 8 5 4 7 7 9 10 12 14 11 15 18 15
21 22 21 21 20 20 20 20 20 16 14 11 13 10 12 10 13 11 13 11 12 12 12 11 8 6 5 5 4 5 8 9 10 13 11 11 16 18
23 22 20 20 19 20 18 20 18 19 18 18 14 13 17 16 14 12 11 7 5 13 11 10 8 6 4 3 2 5 7 8 9 10 13 8 11 17
24 23 22 21 20 20 18 18 18 17 17 17 18 21 18 17 15 15 15 12 8 8 10 7 7 6 4 4 1 3 5 6 8 10 8 8 7 11
25 25 25 23 22 21 21 20 19 19 19 19 19 19 17 16 17 18 18 13 8 9 10 7 8 8 7 6 3 1 2 4 8 9 7 8 7 5
25 25 25 25 23 22 22 20 17 16 15 16 17 16 16 14 15 17 18 17 6 7 12 6 7 8 8 8 6 2 1 3 5 6 6 5 6 6
28 27 26 26 24 23 25 23 22 20 18 15 14 14 16 15 15 17 18 20 9 5 13 11 11 9 5 7 8 6 4 2 1 3 5 5 5 5
28 29 29 27 25 25 25 26 26 19 18 16 15 15 17 20 18 17 18 18 18 6 9 17 13 12 4 4 5 7 5 4 3 2 1 3 4 4
28 27 28 26 25 25 24 25 23 20 21 19 17 19 19 18 17 15 14 15 15 12 9 21 7 11 8 5 2 5 5 6 6 5 4 2 1 3
32 30 28 23 25 24 25 24 22 23 24 26 24 24 21 17 16 14 13 11 11 11 13 16 12 13 8 4 4 5 4 4 4 4 3 3 3 4
31 30 27 25 26 27 24 24 25 27 28 28 27 23 19 19 17 15 14 14 14 14 14 13 10 9 9 8 7 5 6 2 3 2 3 3 4 4
27 28 23 22 23 24 27 26 27 28 26 28 25 24 23 22 20 17 15 18 12 14 15 13 10 9 9 9 9 9 8 7 4 3 3 5 6 6
23 21 21 23 23 24 24 27 28 29 29 27 25 26 26 24 22 20 18 19 18 13 14 15 13 9 7 9 12 9 9 9 6 5 5 4 2 3
20 21 22 24 26 25 25 26 24 28 29 28 27 27 26 24 22 21 20 20 18 15 13 14 16 13 4 3 3 14 15 9 9 8 7 6 4 1
24 21 22 23 25 25 26 25 24 26 29 30 29 28 26 25 23 23 22 20 19 18 17 17 18 20 11 5 4 5 11 11 9 9 9 8 8 8
20 20 23 24 25 27 28 28 28 27 27 28 29 30 27 26 24 23 24 21 19 20 17 22 24 16 15 10 4 6 10 11 10 10 7 10 9 8
22 22 22 27 28 28 27 27 27 25 26 29 28 28 28 28 26 24 24 22 20 20 19 18 16 16 16 18 13 9 7 9 9 10 10 11 6 4
23 24 24 26 28 26 25 27 28 28 29 29 27 27 27 27 28 27 25 24 23 20 19 17 15 17 20 19 16 16 14 13 10 12 14 11 11 13
Wind_Direction
236 231 241 245 234 236 229 219 182 193 224 209 201 211 224 240 241 246 246 243 237 233 237 257 268 281 300 313 329 323 327 322 317 312 312 308 308 297
235 238 235 235 229 221 220 221 216 212 216 200 204 205 208 218 239 266 259 242 236 245 243 257 258 279 304 327 328 323 325 324 319 323 322 317 316 305
236 227 228 227 221 217 217 218 217 211 211 214 203 209 222 238 247 253 252 248 228 229 244 247 255 276 306 329 325 324 321 332 328 331 329 326 319 304
227 223 222 217 217 218 216 214 220 218 220 208 227 218 231 240 246 247 241 242 240 239 238 240 250 275 306 321 330 331 328 339 335 340 333 337 328 321
223 218 217 215 216 217 217 214 216 214 218 223 224 222 226 231 236 239 243 243 241 240 246 244 248 274 304 326 332 342 349 351 347 347 338 351 32 20
225 223 219 220 223 223 222 218 210 201 205 209 218 216 225 230 231 243 241 239 243 244 246 250 253 269 283 312 336 346 9 4 3 2 345 2 26 50
226 229 228 228 230 226 221 209 202 201 210 220 232 217 215 205 220 237 240 244 243 239 240 239 249 260 274 293 337 352 8 12 9 11 7 8 23 53
222 223 223 224 221 220 217 220 220 216 218 218 223 224 232 235 238 234 216 197 219 223 227 239 242 250 262 273 35 29 32 17 8 12 24 18 27 50
231 227 222 218 221 221 217 218 220 224 230 228 225 232 235 233 236 229 219 210 214 193 206 228 220 229 211 225 102 50 28 18 15 21 30 42 40 54
234 228 225 222 221 222 219 218 218 218 220 222 223 233 237 239 233 233 229 210 212 202 209 225 207 221 214 222 185 94 3 359 16 31 47 60 79 70
234 232 233 231 224 217 214 215 212 213 219 221 224 229 232 229 230 213 199 185 214 214 209 238 205 207 210 216 211 228 307 5 23 32 63 68 84 76
237 232 231 231 231 220 214 210 210 213 211 212 215 210 216 213 214 213 223 197 181 190 210 205 192 195 199 209 212 223 235 257 353 41 69 79 83 93
239 239 235 233 228 223 220 217 220 220 210 212 203 206 209 207 210 212 220 218 205 204 206 196 203 201 186 151 201 213 220 229 235 247 98 86 93 100
242 242 243 234 229 225 221 228 223 223 209 204 197 198 199 201 199 200 205 209 213 224 223 202 227 199 178 151 167 194 212 227 235 241 236 240 178 147
245 250 250 238 228 229 229 225 217 208 206 203 203 205 206 202 193 193 195 198 199 206 208 209 222 203 189 154 159 191 194 196 205 221 226 221 199 185
237 242 240 232 224 221 219 217 217 212 211 207 212 208 203 197 195 194 184 183 181 191 199 199 206 203 205 209 213 215 210 182 153 164 233 231 213 204
233 229 213 212 207 209 209 207 214 210 213 216 212 201 201 199 199 197 198 188 188 197 196 196 200 207 211 217 219 226 228 233 230 244 245 250 247 254
219 208 200 201 204 197 198 202 207 210 217 218 213 207 203 201 201 198 201 204 202 203 202 201 200 201 218 237 226 220 219 225 222 239 256 275 262 239
233 221 207 203 206 200 197 198 199 211 219 217 214 211 209 208 203 196 202 210 211 211 210 206 200 197 157 207 212 221 224 227 230 233 243 254 260 209
236 227 218 211 204 203 202 204 206 211 216 214 214 212 210 207 198 200 205 203 210 212 212 213 212 212 204 206 193 213 206 212 221 238 245 252 251 255
238 225 217 211 204 205 202 203 205 209 213 211 210 210 210 208 204 207 212 210 212 212 205 219 225 231 229 236 231 217 212 213 237 252 249 236 251 271
242 230 220 212 209 209 206 204 201 203 209 212 207 212 215 213 207 205 211 205 205 216 222 230 230 214 213 217 228 226 221 217 233 239 243 240 229 227
253 243 230 221 221 226 222 210 204 202 203 209 210 213 214 210 214 219 218 218 216 216 222 219 214 214 221 223 233 240 239 237 238 235 244 245 253 261